STARLINK-1562 (46057 NORAD) Tracking and Keplerian Element Data

This shows tracking and keplerian element data for the satellite.

Feedback or suggestion? Click here.




ElementValue
Catalog46057
NameSTARLINK-1562
Epoch Orbit1931
Epoch Day338.63830613
Epoch Year2020
RAAN105.0412
Inclination53.0017
Eccentricity0.0001769
Argument of Perigee94.0521
Mean Anonmoly266.067
Mean Motion15.05569859
Decay Rate-4.919E-05
L11 46057U 20055AG 20338.63830613 -.00004919 00000-0 -31871-3 0 9998
L22 46057 53.0017 105.0412 0001769 94.0521 266.0670 15.05569859 19311

Live tracking and technical data element details for STARLINK-1562 (NORAD 46057). STARLINK-1562 can be tracked NOW for your location showing map with azimuth and elevation plus other details from your city location.

Track the satellite on the map from your city or location and see movement details for azimuth, elevation, latitude, longitude, range, height, and movement on the map or in text.







IsCatalogInMostPopularTable: catalog: 46057, numindb: 25
Update: records affected: 1



GetName: 46057 STARLINK-1562

Hit Count: updated at: Sun, 06 Dec 2020 00:52:07 GMT